Location: Gibsondale
(40.9931°N, 80.2478°W)
Time: 09:06:06
(UTC+00:00)

COSMO-SKYMED 1 - Pass Details

Date: 29 October 2020
Orbit: 621 x 623 km, 97.9° (Epoch: 26 November)

Event Time Altitude Azimuth Distance (km) Brightness Sun altitude
Rises 23:32:05 0° 11° (N) 2,911 5.8 -14.2°
Reaches altitude 10° 23:34:17 10° 10° (N) 2,000 5.0 -14.6°
Maximum altitude 23:38:38 81° 284° (WNW) 635 2.6 -15.4°
Drops below altitude 10° 23:42:57 10° 197° (SSW) 1,983 5.4 -16.2°
Sets 23:45:08 0° 197° (SSW) 2,885 6.3 -16.6°
